User: anonymous   Login
Location: Brede
(50.9167°N, 0.6000°E)
Time: 16:08:39
(UTC+00:00)
Language:

Vanguard 3 - Orbit

View from above orbital plane
View from above orbital plane
View from above satellite
View from above satellite

Ground track
Ground track

The orbit data is extracted from the following two-line orbital elements,

1    20U 59007A   20329.41904793  .00000316  00000-0  13474-3 0  9998
2    20  33.3447 332.1739 1666478  35.2911 334.7374 11.55771556249149
Epoch (UTC): 24 November 2020 10:03:25
Eccentricity: 0.1666478
inclination: 33.3447°
perigee height: 508 km
apogee height: 3262 km
right ascension of ascending node: 332.1739°
argument of perigee: 35.2911°
revolutions per day: 11.55771556
mean anomaly at epoch: 334.7374°
orbit number at epoch: 24914

The dashed part of the orbit path shows where the satellite is in the earth's shadow,  

DLR